KIND Airport Diagram

We have created a template for each of the higher traffic airports in the vZID airspace. They include KCMH, KCRW, KCVG, KDAY, KIND, KLEX and KSDF. You wil find usefull information including the airport diagram, weather, and specific airport procedures.

KIND Weather

[Source: ADDS]
METAR
KIND 190654Z 00000KT 10SM CLR 04/01 A3034 RMK AO2 SLP276 T00390011 =
KIND 190520Z 1906/2012 VRB03KT P6SM SKC FM191400 20007KT P6SM SCT150 FM192100 23010KT P6SM BKN060 FM200000 23011KT P6SM OVC025 FM200800 26009KT P6SM BKN010 FM201000 27008KT P6SM BKN090
TAF
KIND 190520Z 1906/2012 VRB03KT P6SM SKC FM191400 20007KT P6SM SCT150 FM192100 23010KT P6SM BKN060 FM200000 23011KT P6SM OVC025 FM200800 26009KT P6SM BKN010 FM201000 27008KT P6SM BKN090 =

KIND Operations

 Calm Wind Configuration is runways 23L/R, up to and including 10kts.

Runway 23L typically departs South and East, Runway 23R typically departs North and West.

FedEx pilots should expect runway 23L or 5R.

Contraflow (noise abatement) procedures from 2200L to 0600L, landing Runway 5R, departing Runway 23R, weather permitted.

New Scenery is available at FlightSim.com and Blueprint Simulations. On initial contact, arriving aircraft should notify the the controller if their scenery has the Midfield Terminal.

FBOs: Signature is near taxiway D and Millionaire is near taxiway A, both are North of taxiway M.

 

JSN Epic template designed by JoomlaShine.com